This is the latest recevied weather packets stored in our database for station/object WB5LFS-1. If no packets are shown the sender has not sent any weather packets the latest 10 day(s).
| Time | Temp. | Humidity | Pressure | Rain* | Wind** | Luminosity | Snow |
|---|---|---|---|---|---|---|---|
| 1777753613 | 15° C | 46% | 1011.3 hPa | 0 mm | - | - | - |
| 1777752713 | 15° C | 44% | 1011.4 hPa | 0 mm | - | - | - |
| 1777751813 | 15° C | 46% | 1011.5 hPa | 0 mm | - | - | - |
| 1777750913 | 15° C | 45% | 1011.5 hPa | 0 mm | - | - | - |
| 1777750013 | 14.44° C | 48% | 1011.8 hPa | 0 mm | - | - | - |
| 1777749113 | 15° C | 42% | 1012 hPa | 0 mm | - | - | - |
| 1777748213 | 15.56° C | 50% | 1011.9 hPa | 0 mm | - | - | - |
| 1777747313 | 15° C | 46% | 1011.9 hPa | 0 mm | - | - | - |
| 1777746413 | 15° C | 50% | 1012.4 hPa | 0 mm | - | - | - |
| 1777745513 | 14.44° C | 52% | 1012.5 hPa | 0 mm | - | - | - |
| 1777744613 | 13.89° C | 51% | 1012.7 hPa | 0 mm | - | - | - |
| 1777743713 | 13.89° C | 53% | 1013.2 hPa | 0 mm | - | - | - |
| 1777742813 | 13.89° C | 54% | 1013.5 hPa | 0 mm | - | - | - |
| 1777741913 | 13.89° C | 55% | 1013.7 hPa | 0 mm | - | - | - |
| 1777741013 | 13.89° C | 52% | 1013.8 hPa | 0 mm | - | - | - |
| 1777740113 | 13.33° C | 58% | 1013.5 hPa | 0 mm | - | - | - |
| 1777739213 | 13.33° C | 58% | 1013.6 hPa | 0 mm | - | - | - |
| 1777738313 | 13.33° C | 58% | 1013.7 hPa | 0 mm | - | - | - |
| 1777737413 | 13.33° C | 62% | 1013.7 hPa | 0 mm | - | - | - |
| 1777736513 | 13.33° C | 62% | 1013.7 hPa | 0 mm | - | - | - |
| 1777735613 | 13.33° C | 63% | 1013.5 hPa | 0 mm | - | - | - |
| 1777734713 | 12.78° C | 64% | 1013.8 hPa | 0 mm | - | - | - |
| 1777733813 | 12.78° C | 65% | 1014 hPa | 0 mm | - | - | - |
| 1777732913 | 12.78° C | 64% | 1014.1 hPa | 0 mm | - | - | - |
| 1777732013 | 12.78° C | 63% | 1013.6 hPa | 0 mm | - | - | - |
* Rain latest hour (hover to see other rain measurements)
** Current wind speed in m/s (hover to see current wind gust speed)